Time,TemperatureF,DewpointF,PressureIn,WindDirection,WindDirectionDegrees,WindSpeedMPH,WindSpeedGustMPH,Humidity,HourlyPrecipIn,Conditions,Clouds,dailyrainin,SoftwareType,DateUTC
2013-02-26 00:00:00,28.6,25.2,30.22,North,5,0.0,1.0,87,0.00,,---,0.00,VWS V14.01,2013-02-26 05:00:00,
2013-02-26 00:05:00,28.8,25.4,30.22,North,5,0.0,1.0,87,0.00,,---,0.00,VWS V14.01,2013-02-26 05:05:00,
2013-02-26 00:10:00,28.9,25.5,30.22,North,5,0.0,1.0,87,0.00,,---,0.00,VWS V14.01,2013-02-26 05:10:00,
2013-02-26 00:15:00,28.9,25.5,30.22,North,5,0.0,1.0,87,0.00,,---,0.00,VWS V14.01,2013-02-26 05:15:00,
2013-02-26 00:20:00,28.8,25.1,30.22,North,5,0.0,2.0,86,0.00,,---,0.00,VWS V14.01,2013-02-26 05:20:00,
2013-02-26 00:25:00,28.8,25.1,30.23,North,5,1.0,1.0,86,0.00,,---,0.00,VWS V14.01,2013-02-26 05:25:00,
2013-02-26 00:30:00,28.9,25.5,30.23,North,5,1.0,2.0,87,0.00,,---,0.00,VWS V14.01,2013-02-26 05:30:00,
2013-02-26 00:35:00,28.9,25.2,30.23,North,5,0.0,2.0,86,0.00,,---,0.00,VWS V14.01,2013-02-26 05:35:00,
2013-02-26 00:40:00,29.0,25.6,30.23,North,5,0.0,2.0,87,0.00,,---,0.00,VWS V14.01,2013-02-26 05:40:00,
2013-02-26 00:45:00,29.2,25.8,30.24,North,5,2.0,3.0,87,0.00,,---,0.00,VWS V14.01,2013-02-26 05:45:00,
2013-02-26 00:50:00,29.3,25.9,30.24,SW,216,1.0,5.0,87,0.00,,---,0.00,VWS V14.01,2013-02-26 05:50:00,
2013-02-26 00:55:00,29.3,25.9,30.25,SW,217,2.0,2.0,87,0.00,,---,0.00,VWS V14.01,2013-02-26 05:55:00,
2013-02-26 01:00:00,29.4,26.0,30.25,SW,221,1.0,6.0,87,0.00,,---,0.00,VWS V14.01,2013-02-26 06:00:00,
2013-02-26 01:05:00,29.3,25.6,30.24,SW,221,1.0,6.0,86,0.00,,---,0.00,VWS V14.01,2013-02-26 06:05:00,
2013-02-26 01:10:00,29.3,25.9,30.25,SW,221,0.0,6.0,87,0.00,,---,0.00,VWS V14.01,2013-02-26 06:10:00,
2013-02-26 01:15:00,29.1,25.7,30.25,SW,221,0.0,6.0,87,0.00,,---,0.00,VWS V14.01,2013-02-26 06:15:00,
2013-02-26 01:20:00,29.1,25.7,30.25,SW,221,1.0,6.0,87,0.00,,---,0.00,VWS V14.01,2013-02-26 06:20:00,
2013-02-26 01:25:00,29.0,25.6,30.25,SW,221,0.0,2.0,87,0.00,,---,0.00,VWS V14.01,2013-02-26 06:25:00,
2013-02-26 01:30:00,29.1,25.7,30.24,SW,221,0.0,2.0,87,0.00,,---,0.00,VWS V14.01,2013-02-26 06:30:00,
2013-02-26 01:35:00,29.1,26.0,30.24,SW,221,1.0,4.0,88,0.00,,---,0.00,VWS V14.01,2013-02-26 06:35:00,
2013-02-26 01:40:00,29.1,26.0,30.24,SW,221,0.0,4.0,88,0.00,,---,0.00,VWS V14.01,2013-02-26 06:40:00,
2013-02-26 01:45:00,29.0,25.9,30.24,SW,221,0.0,4.0,88,0.00,,---,0.00,VWS V14.01,2013-02-26 06:45:00,
2013-02-26 01:50:00,29.0,25.6,30.25,SW,221,1.0,4.0,87,0.00,,---,0.00,VWS V14.01,2013-02-26 06:50:00,
2013-02-26 01:55:00,28.9,25.5,30.25,SW,221,1.0,2.0,87,0.00,,---,0.00,VWS V14.01,2013-02-26 06:55:00,
2013-02-26 02:00:00,28.8,25.1,30.25,SW,221,1.0,2.0,86,0.00,,---,0.00,VWS V14.01,2013-02-26 07:00:00,
2013-02-26 02:05:00,28.7,25.0,30.26,SW,221,0.0,2.0,86,0.00,,---,0.00,VWS V14.01,2013-02-26 07:05:00,
2013-02-26 02:10:00,28.6,25.0,30.26,SW,221,0.0,2.0,86,0.00,,---,0.00,VWS V14.01,2013-02-26 07:10:00,
2013-02-26 02:15:00,28.5,24.9,30.25,SW,221,0.0,2.0,86,0.00,,---,0.00,VWS V14.01,2013-02-26 07:15:00,
2013-02-26 02:20:00,28.4,24.8,30.25,SW,221,0.0,2.0,86,0.00,,---,0.00,VWS V14.01,2013-02-26 07:20:00,
2013-02-26 02:25:00,28.4,25.0,30.25,SW,221,0.0,0.0,87,0.00,,---,0.00,VWS V14.01,2013-02-26 07:25:00,
2013-02-26 02:30:00,28.4,25.0,30.25,SW,221,0.0,0.0,87,0.00,,---,0.00,VWS V14.01,2013-02-26 07:30:00,
2013-02-26 02:35:00,28.4,25.0,30.24,SW,221,0.0,1.0,87,0.00,,---,0.00,VWS V14.01,2013-02-26 07:35:00,
2013-02-26 02:40:00,28.4,25.3,30.25,SW,221,1.0,2.0,88,0.00,,---,0.00,VWS V14.01,2013-02-26 07:40:00,
2013-02-26 02:45:00,28.4,25.3,30.25,SW,221,2.0,2.0,88,0.00,,---,0.00,VWS V14.01,2013-02-26 07:45:00,
2013-02-26 02:50:00,28.3,25.2,30.24,SW,221,0.0,2.0,88,0.00,,---,0.00,VWS V14.01,2013-02-26 07:50:00,
2013-02-26 02:55:00,28.3,25.5,30.24,SW,221,0.0,0.0,89,0.00,,---,0.00,VWS V14.01,2013-02-26 07:55:00,
2013-02-26 03:00:00,28.3,25.5,30.24,SW,221,0.0,1.0,89,0.00,,---,0.00,VWS V14.01,2013-02-26 08:00:00,
2013-02-26 03:05:00,28.2,25.4,30.24,SW,221,0.0,1.0,89,0.00,,---,0.00,VWS V14.01,2013-02-26 08:05:00,
2013-02-26 03:10:00,28.0,25.2,30.24,SW,221,0.0,1.0,89,0.00,,---,0.00,VWS V14.01,2013-02-26 08:10:00,
2013-02-26 03:15:00,28.0,25.2,30.24,SW,221,0.0,1.0,89,0.00,,---,0.00,VWS V14.01,2013-02-26 08:15:00,
2013-02-26 03:20:00,27.9,25.1,30.24,SW,221,0.0,2.0,89,0.00,,---,0.00,VWS V14.01,2013-02-26 08:20:00,
2013-02-26 03:25:00,27.8,25.0,30.24,SW,221,1.0,2.0,89,0.00,,---,0.00,VWS V14.01,2013-02-26 08:25:00,
2013-02-26 03:30:00,27.8,25.0,30.24,SW,221,0.0,2.0,89,0.00,,---,0.00,VWS V14.01,2013-02-26 08:30:00,
2013-02-26 03:35:00,27.6,24.8,30.24,SW,221,0.0,2.0,89,0.00,,---,0.00,VWS V14.01,2013-02-26 08:35:00,
2013-02-26 03:40:00,27.6,24.8,30.24,SW,221,2.0,4.0,89,0.00,,---,0.00,VWS V14.01,2013-02-26 08:40:00,
2013-02-26 03:45:00,27.7,24.9,30.24,SW,215,2.0,5.0,89,0.00,,---,0.00,VWS V14.01,2013-02-26 08:45:00,
2013-02-26 03:50:00,27.7,24.9,30.24,SSW,212,1.0,5.0,89,0.00,,---,0.00,VWS V14.01,2013-02-26 08:50:00,
2013-02-26 03:55:00,27.7,24.6,30.23,SSW,209,3.0,3.0,88,0.00,,---,0.00,VWS V14.01,2013-02-26 08:55:00,
2013-02-26 04:00:00,27.7,24.3,30.23,SSW,207,1.0,4.0,87,0.00,,---,0.00,VWS V14.01,2013-02-26 09:00:00,
2013-02-26 04:05:00,27.6,24.2,30.23,SSW,196,4.0,5.0,87,0.00,,---,0.00,VWS V14.01,2013-02-26 09:05:00,
2013-02-26 04:10:00,27.7,24.3,30.24,SSW,196,0.0,5.0,87,0.00,,---,0.00,VWS V14.01,2013-02-26 09:10:00,
2013-02-26 04:15:00,27.8,24.4,30.24,SSW,194,0.0,5.0,87,0.00,,---,0.00,VWS V14.01,2013-02-26 09:15:00,
2013-02-26 04:20:00,27.9,24.8,30.24,SSW,194,2.0,5.0,88,0.00,,---,0.00,VWS V14.01,2013-02-26 09:20:00,
2013-02-26 04:25:00,28.1,25.0,30.24,SSW,194,1.0,1.0,88,0.00,,---,0.00,VWS V14.01,2013-02-26 09:25:00,
2013-02-26 04:30:00,28.1,25.0,30.24,SSW,194,0.0,3.0,88,0.00,,---,0.00,VWS V14.01,2013-02-26 09:30:00,
2013-02-26 04:35:00,28.1,25.0,30.23,SSW,194,0.0,4.0,88,0.00,,---,0.00,VWS V14.01,2013-02-26 09:35:00,
2013-02-26 04:40:00,28.2,25.1,30.23,South,180,3.0,4.0,88,0.00,,---,0.00,VWS V14.01,2013-02-26 09:40:00,
2013-02-26 04:45:00,28.3,25.2,30.23,South,178,0.0,4.0,88,0.00,,---,0.00,VWS V14.01,2013-02-26 09:45:00,
2013-02-26 04:50:00,28.4,25.3,30.23,South,178,0.0,4.0,88,0.00,,---,0.00,VWS V14.01,2013-02-26 09:50:00,
2013-02-26 04:55:00,28.4,25.3,30.24,South,178,5.0,5.0,88,0.00,,---,0.00,VWS V14.01,2013-02-26 09:55:00,
2013-02-26 05:00:00,28.4,25.3,30.23,South,176,1.0,6.0,88,0.00,,---,0.00,VWS V14.01,2013-02-26 10:00:00,
2013-02-26 05:05:00,28.3,25.2,30.24,South,176,0.0,6.0,88,0.00,,---,0.00,VWS V14.01,2013-02-26 10:05:00,
2013-02-26 05:10:00,28.1,25.0,30.24,South,176,2.0,6.0,88,0.00,,---,0.00,VWS V14.01,2013-02-26 10:10:00,
2013-02-26 05:15:00,28.0,24.9,30.24,South,176,2.0,6.0,88,0.00,,---,0.00,VWS V14.01,2013-02-26 10:15:00,
2013-02-26 05:20:00,27.9,24.8,30.24,South,176,2.0,6.0,88,0.00,,---,0.00,VWS V14.01,2013-02-26 10:20:00,
2013-02-26 05:25:00,27.7,24.6,30.24,South,176,2.0,4.0,88,0.00,,---,0.00,VWS V14.01,2013-02-26 10:25:00,
2013-02-26 05:30:00,27.7,24.6,30.24,South,176,1.0,6.0,88,0.00,,---,0.00,VWS V14.01,2013-02-26 10:30:00,
2013-02-26 05:35:00,27.5,24.4,30.24,South,176,4.0,6.0,88,0.00,,---,0.00,VWS V14.01,2013-02-26 10:35:00,
2013-02-26 05:40:00,27.6,24.5,30.25,South,176,2.0,6.0,88,0.00,,---,0.00,VWS V14.01,2013-02-26 10:40:00,
2013-02-26 05:45:00,27.5,24.4,30.25,South,176,2.0,6.0,88,0.00,,---,0.00,VWS V14.01,2013-02-26 10:45:00,
2013-02-26 05:50:00,27.4,24.0,30.24,South,176,1.0,6.0,87,0.00,,---,0.00,VWS V14.01,2013-02-26 10:50:00,
2013-02-26 05:55:00,27.2,24.1,30.24,South,176,1.0,2.0,88,0.00,,---,0.00,VWS V14.01,2013-02-26 10:55:00,
2013-02-26 06:00:00,27.1,24.0,30.24,South,176,1.0,4.0,88,0.00,,---,0.00,VWS V14.01,2013-02-26 11:00:00,
2013-02-26 06:05:00,27.0,23.9,30.24,South,176,1.0,4.0,88,0.00,,---,0.00,VWS V14.01,2013-02-26 11:05:00,
2013-02-26 06:10:00,26.9,23.8,30.24,South,176,0.0,5.0,88,0.00,,---,0.00,VWS V14.01,2013-02-26 11:10:00,
2013-02-26 06:15:00,26.9,23.8,30.24,South,176,1.0,5.0,88,0.00,,---,0.00,VWS V14.01,2013-02-26 11:15:00,
2013-02-26 06:20:00,26.8,23.7,30.24,South,176,1.0,5.0,88,0.00,,---,0.00,VWS V14.01,2013-02-26 11:20:00,
2013-02-26 06:25:00,26.8,23.5,30.24,South,176,2.0,2.0,87,0.00,,---,0.00,VWS V14.01,2013-02-26 11:25:00,
2013-02-26 06:30:00,26.7,23.4,30.24,South,176,2.0,5.0,87,0.00,,---,0.00,VWS V14.01,2013-02-26 11:30:00,
2013-02-26 06:35:00,26.7,23.4,30.24,South,176,0.0,5.0,87,0.00,,---,0.00,VWS V14.01,2013-02-26 11:35:00,
2013-02-26 06:40:00,26.6,23.3,30.24,South,176,2.0,5.0,87,0.00,,---,0.00,VWS V14.01,2013-02-26 11:40:00,
2013-02-26 06:45:00,26.7,23.4,30.23,South,176,1.0,5.0,87,0.00,,---,0.00,VWS V14.01,2013-02-26 11:45:00,
2013-02-26 06:50:00,26.8,23.5,30.23,South,176,5.0,5.0,87,0.00,,---,0.00,VWS V14.01,2013-02-26 11:50:00,
2013-02-26 06:55:00,26.9,23.8,30.23,South,176,1.0,2.0,88,0.00,,---,0.00,VWS V14.01,2013-02-26 11:55:00,
2013-02-26 07:00:00,27.0,23.9,30.22,South,176,1.0,4.0,88,0.00,,---,0.00,VWS V14.01,2013-02-26 12:00:00,
2013-02-26 07:05:00,27.0,23.9,30.23,South,176,4.0,4.0,88,0.00,,---,0.00,VWS V14.01,2013-02-26 12:05:00,
2013-02-26 07:10:00,27.1,24.0,30.22,South,176,2.0,4.0,88,0.00,,---,0.00,VWS V14.01,2013-02-26 12:10:00,
2013-02-26 07:15:00,27.3,24.2,30.23,South,176,2.0,4.0,88,0.00,,---,0.00,VWS V14.01,2013-02-26 12:15:00,
2013-02-26 07:20:00,27.5,24.4,30.23,South,176,2.0,4.0,88,0.00,,---,0.00,VWS V14.01,2013-02-26 12:20:00,
2013-02-26 07:25:00,27.7,24.6,30.22,South,176,1.0,2.0,88,0.00,,---,0.00,VWS V14.01,2013-02-26 12:25:00,
2013-02-26 07:30:00,27.9,24.8,30.22,South,176,0.0,7.0,88,0.00,,---,0.00,VWS V14.01,2013-02-26 12:30:00,
2013-02-26 07:35:00,28.1,25.0,30.22,South,176,1.0,7.0,88,0.00,,---,0.00,VWS V14.01,2013-02-26 12:35:00,
2013-02-26 07:40:00,28.3,25.2,30.22,South,176,2.0,7.0,88,0.00,,---,0.00,VWS V14.01,2013-02-26 12:40:00,
2013-02-26 07:45:00,28.4,25.0,30.22,SSW,198,2.0,7.0,87,0.00,,---,0.00,VWS V14.01,2013-02-26 12:45:00,
2013-02-26 07:50:00,28.6,25.2,30.23,SSW,205,0.0,7.0,87,0.00,,---,0.00,VWS V14.01,2013-02-26 12:50:00,
2013-02-26 07:55:00,28.8,25.4,30.23,South,191,2.0,3.0,87,0.00,,---,0.00,VWS V14.01,2013-02-26 12:55:00,
2013-02-26 08:00:00,29.1,25.4,30.23,SSW,211,7.0,7.0,86,0.00,,---,0.00,VWS V14.01,2013-02-26 13:00:00,
2013-02-26 08:05:00,29.4,25.5,30.23,SSW,208,1.0,7.0,85,0.00,,---,0.00,VWS V14.01,2013-02-26 13:05:00,
2013-02-26 08:10:00,30.0,26.3,30.23,SE,132,4.0,7.0,86,0.00,,---,0.00,VWS V14.01,2013-02-26 13:10:00,
2013-02-26 08:15:00,30.5,26.5,30.23,SE,142,1.0,7.0,85,0.00,,---,0.00,VWS V14.01,2013-02-26 13:15:00,
2013-02-26 08:20:00,30.8,26.8,30.23,SE,136,1.0,7.0,85,0.00,,---,0.00,VWS V14.01,2013-02-26 13:20:00,
2013-02-26 08:25:00,31.1,26.8,30.23,South,170,0.0,2.0,84,0.00,,---,0.00,VWS V14.01,2013-02-26 13:25:00,
2013-02-26 08:30:00,31.3,27.0,30.23,SSE,158,0.0,6.0,84,0.00,,---,0.00,VWS V14.01,2013-02-26 13:30:00,
2013-02-26 08:35:00,31.4,27.1,30.23,ESE,120,1.0,7.0,84,0.01,,---,0.01,VWS V14.01,2013-02-26 13:35:00,
2013-02-26 08:40:00,31.5,26.9,30.23,SSW,204,4.0,7.0,83,0.01,,---,0.01,VWS V14.01,2013-02-26 13:40:00,
2013-02-26 08:45:00,31.4,26.5,30.23,South,176,1.0,8.0,82,0.01,,---,0.01,VWS V14.01,2013-02-26 13:45:00,
2013-02-26 08:50:00,31.6,27.0,30.23,SE,130,2.0,8.0,83,0.01,,---,0.01,VWS V14.01,2013-02-26 13:50:00,
2013-02-26 08:55:00,31.8,26.9,30.23,South,169,1.0,4.0,82,0.01,,---,0.01,VWS V14.01,2013-02-26 13:55:00,
2013-02-26 09:00:00,32.1,27.2,30.24,South,185,5.0,6.0,82,0.01,,---,0.01,VWS V14.01,2013-02-26 14:00:00,
2013-02-26 09:05:00,32.2,27.0,30.24,SSE,149,1.0,7.0,81,0.01,,---,0.01,VWS V14.01,2013-02-26 14:05:00,
2013-02-26 09:10:00,32.3,27.4,30.24,South,190,2.0,8.0,82,0.01,,---,0.01,VWS V14.01,2013-02-26 14:10:00,
2013-02-26 09:15:00,32.5,27.6,30.24,SE,134,4.0,10.0,82,0.01,,---,0.01,VWS V14.01,2013-02-26 14:15:00,
2013-02-26 09:20:00,33.2,28.3,30.24,East,88,4.0,10.0,82,0.01,,---,0.01,VWS V14.01,2013-02-26 14:20:00,
2013-02-26 09:25:00,33.6,28.4,30.24,East,80,2.0,5.0,81,0.01,,---,0.01,VWS V14.01,2013-02-26 14:25:00,
2013-02-26 09:30:00,33.8,28.0,30.24,South,178,1.0,8.0,79,0.01,,---,0.01,VWS V14.01,2013-02-26 14:30:00,
2013-02-26 09:35:00,34.2,28.7,30.24,ESE,119,4.0,8.0,80,0.01,,---,0.01,VWS V14.01,2013-02-26 14:35:00,
2013-02-26 09:40:00,34.6,28.8,30.24,ENE,77,2.0,8.0,79,0.01,,---,0.01,VWS V14.01,2013-02-26 14:40:00,
2013-02-26 09:45:00,34.8,28.3,30.23,East,101,6.0,8.0,77,0.01,,---,0.01,VWS V14.01,2013-02-26 14:45:00,
2013-02-26 09:50:00,35.1,28.9,30.23,East,101,6.0,9.0,78,0.01,,---,0.01,VWS V14.01,2013-02-26 14:50:00,
2013-02-26 09:55:00,35.6,29.1,30.23,SSE,150,2.0,7.0,77,0.00,,---,0.01,VWS V14.01,2013-02-26 14:55:00,
2013-02-26 10:00:00,36.2,29.4,30.23,SE,127,2.0,7.0,76,0.00,,---,0.01,VWS V14.01,2013-02-26 15:00:00,
2013-02-26 10:05:00,36.7,29.2,30.22,SE,139,1.0,9.0,74,0.00,,---,0.01,VWS V14.01,2013-02-26 15:05:00,
2013-02-26 10:10:00,37.0,29.5,30.21,ESE,117,6.0,9.0,74,0.00,,---,0.01,VWS V14.01,2013-02-26 15:10:00,
2013-02-26 10:15:00,37.5,30.0,30.21,ESE,111,6.0,9.0,74,0.00,,---,0.01,VWS V14.01,2013-02-26 15:15:00,
2013-02-26 10:20:00,37.9,30.4,30.20,East,101,8.0,11.0,74,0.00,,---,0.01,VWS V14.01,2013-02-26 15:20:00,
2013-02-26 10:25:00,38.2,30.3,30.20,ESE,119,7.0,9.0,73,0.00,,---,0.01,VWS V14.01,2013-02-26 15:25:00,
2013-02-26 10:30:00,38.5,30.6,30.20,East,82,6.0,10.0,73,0.00,,---,0.01,VWS V14.01,2013-02-26 15:30:00,
2013-02-26 10:35:00,38.8,30.6,30.19,East,96,7.0,10.0,72,0.00,,---,0.01,VWS V14.01,2013-02-26 15:35:00,
2013-02-26 10:40:00,38.8,29.9,30.19,East,98,6.0,11.0,70,0.00,,---,0.01,VWS V14.01,2013-02-26 15:40:00,
2013-02-26 10:45:00,39.0,30.1,30.18,East,96,4.0,14.0,70,0.00,,---,0.01,VWS V14.01,2013-02-26 15:45:00,
2013-02-26 10:50:00,39.2,30.6,30.18,ESE,108,7.0,14.0,71,0.00,,---,0.01,VWS V14.01,2013-02-26 15:50:00,
2013-02-26 10:55:00,39.3,30.4,30.18,East,86,5.0,11.0,70,0.00,,---,0.01,VWS V14.01,2013-02-26 15:55:00,
2013-02-26 11:00:00,39.6,31.0,30.18,ESE,122,7.0,12.0,71,0.00,,---,0.01,VWS V14.01,2013-02-26 16:00:00,
2013-02-26 11:05:00,40.0,31.0,30.18,East,98,8.0,12.0,70,0.00,,---,0.01,VWS V14.01,2013-02-26 16:05:00,
2013-02-26 11:10:00,40.1,30.8,30.18,ESE,105,8.0,14.0,69,0.00,,---,0.01,VWS V14.01,2013-02-26 16:10:00,
2013-02-26 11:15:00,40.4,31.0,30.18,East,94,9.0,14.0,69,0.00,,---,0.01,VWS V14.01,2013-02-26 16:15:00,
2013-02-26 11:20:00,40.7,31.0,30.18,South,175,6.0,14.0,68,0.00,,---,0.01,VWS V14.01,2013-02-26 16:20:00,
2013-02-26 11:25:00,41.0,31.3,30.18,East,91,11.0,12.0,68,0.00,,---,0.01,VWS V14.01,2013-02-26 16:25:00,
2013-02-26 11:30:00,41.2,32.2,30.18,SE,126,9.0,13.0,70,0.00,,---,0.01,VWS V14.01,2013-02-26 16:30:00,
2013-02-26 11:35:00,41.3,31.5,30.17,SE,124,12.0,13.0,68,0.00,,---,0.01,VWS V14.01,2013-02-26 16:35:00,
2013-02-26 11:40:00,41.3,31.5,30.17,SSE,160,7.0,14.0,68,0.00,,---,0.01,VWS V14.01,2013-02-26 16:40:00,
2013-02-26 11:45:00,41.4,31.3,30.17,ESE,117,7.0,14.0,67,0.00,,---,0.01,VWS V14.01,2013-02-26 16:45:00,
2013-02-26 11:50:00,41.6,32.2,30.17,ESE,117,7.0,14.0,69,0.00,,---,0.01,VWS V14.01,2013-02-26 16:50:00,
2013-02-26 11:55:00,41.9,31.4,30.16,ESE,102,5.0,8.0,66,0.00,,---,0.01,VWS V14.01,2013-02-26 16:55:00,
2013-02-26 12:00:00,41.9,30.6,30.16,East,98,7.0,15.0,64,0.00,,---,0.01,VWS V14.01,2013-02-26 17:00:00,
2013-02-26 12:05:00,41.9,31.4,30.16,ESE,113,8.0,15.0,66,0.00,,---,0.01,VWS V14.01,2013-02-26 17:05:00,
2013-02-26 12:10:00,42.0,31.9,30.16,ESE,103,5.0,15.0,67,0.00,,---,0.01,VWS V14.01,2013-02-26 17:10:00,
2013-02-26 12:15:00,42.0,31.5,30.15,ESE,111,6.0,15.0,66,0.00,,---,0.01,VWS V14.01,2013-02-26 17:15:00,
2013-02-26 12:20:00,42.0,31.9,30.15,ESE,107,11.0,15.0,67,0.00,,---,0.01,VWS V14.01,2013-02-26 17:20:00,
2013-02-26 12:25:00,42.2,31.7,30.15,East,98,6.0,9.0,66,0.00,,---,0.01,VWS V14.01,2013-02-26 17:25:00,
2013-02-26 12:30:00,42.2,31.7,30.14,East,84,7.0,13.0,66,0.00,,---,0.01,VWS V14.01,2013-02-26 17:30:00,
2013-02-26 12:35:00,42.0,31.5,30.13,East,92,6.0,13.0,66,0.00,,---,0.01,VWS V14.01,2013-02-26 17:35:00,
2013-02-26 12:40:00,42.0,31.9,30.13,SE,133,16.0,16.0,67,0.00,,---,0.01,VWS V14.01,2013-02-26 17:40:00,
2013-02-26 12:45:00,42.1,31.6,30.12,ESE,105,7.0,16.0,66,0.00,,---,0.01,VWS V14.01,2013-02-26 17:45:00,
2013-02-26 12:50:00,42.4,32.2,30.12,ESE,119,7.0,16.0,67,0.00,,---,0.01,VWS V14.01,2013-02-26 17:50:00,
2013-02-26 12:55:00,42.4,31.1,30.11,SE,142,6.0,10.0,64,0.00,,---,0.01,VWS V14.01,2013-02-26 17:55:00,
2013-02-26 13:00:00,42.5,31.6,30.11,ESE,117,6.0,14.0,65,0.00,,---,0.01,VWS V14.01,2013-02-26 18:00:00,
2013-02-26 13:05:00,42.3,31.8,30.10,SE,143,7.0,18.0,66,0.00,,---,0.01,VWS V14.01,2013-02-26 18:05:00,
2013-02-26 13:10:00,42.4,31.5,30.10,SE,142,6.0,18.0,65,0.00,,---,0.01,VWS V14.01,2013-02-26 18:10:00,
2013-02-26 13:15:00,42.6,31.3,30.09,SE,126,9.0,18.0,64,0.00,,---,0.01,VWS V14.01,2013-02-26 18:15:00,
2013-02-26 13:20:00,42.8,31.1,30.09,East,82,5.0,18.0,63,0.00,,---,0.01,VWS V14.01,2013-02-26 18:20:00,
2013-02-26 13:25:00,43.1,31.8,30.09,ESE,103,6.0,9.0,64,0.00,,---,0.01,VWS V14.01,2013-02-26 18:25:00,
2013-02-26 13:30:00,43.1,32.2,30.09,ESE,102,7.0,11.0,65,0.00,,---,0.01,VWS V14.01,2013-02-26 18:30:00,
2013-02-26 13:35:00,43.0,31.7,30.08,ESE,106,6.0,12.0,64,0.00,,---,0.01,VWS V14.01,2013-02-26 18:35:00,
2013-02-26 13:40:00,43.1,32.2,30.08,ESE,105,9.0,12.0,65,0.00,,---,0.01,VWS V14.01,2013-02-26 18:40:00,
2013-02-26 13:45:00,43.1,32.2,30.08,ESE,115,6.0,12.0,65,0.00,,---,0.01,VWS V14.01,2013-02-26 18:45:00,
2013-02-26 13:50:00,43.1,32.2,30.08,East,99,6.0,12.0,65,0.00,,---,0.01,VWS V14.01,2013-02-26 18:50:00,
2013-02-26 13:55:00,43.2,31.9,30.08,ESE,108,8.0,9.0,64,0.00,,---,0.01,VWS V14.01,2013-02-26 18:55:00,
2013-02-26 14:00:00,43.3,31.6,30.07,ESE,105,5.0,16.0,63,0.00,,---,0.01,VWS V14.01,2013-02-26 19:00:00,
2013-02-26 14:05:00,43.2,31.5,30.07,ESE,110,11.0,16.0,63,0.00,,---,0.01,VWS V14.01,2013-02-26 19:05:00,
2013-02-26 14:10:00,43.1,31.4,30.07,ESE,115,9.0,16.0,63,0.00,,---,0.01,VWS V14.01,2013-02-26 19:10:00,
2013-02-26 14:15:00,43.1,31.4,30.06,SE,125,6.0,16.0,63,0.00,,---,0.01,VWS V14.01,2013-02-26 19:15:00,
2013-02-26 14:20:00,43.0,31.7,30.06,East,98,8.0,16.0,64,0.00,,---,0.01,VWS V14.01,2013-02-26 19:20:00,
2013-02-26 14:25:00,42.9,31.2,30.06,SSE,157,5.0,9.0,63,0.00,,---,0.01,VWS V14.01,2013-02-26 19:25:00,
2013-02-26 14:30:00,43.1,31.0,30.06,East,96,9.0,13.0,62,0.00,,---,0.01,VWS V14.01,2013-02-26 19:30:00,
2013-02-26 14:35:00,43.2,30.7,30.06,East,81,6.0,15.0,61,0.00,,---,0.01,VWS V14.01,2013-02-26 19:35:00,
2013-02-26 14:40:00,43.2,32.6,30.06,East,96,7.0,15.0,66,0.00,,---,0.01,VWS V14.01,2013-02-26 19:40:00,
2013-02-26 14:45:00,43.1,31.0,30.06,ESE,111,8.0,15.0,62,0.00,,---,0.01,VWS V14.01,2013-02-26 19:45:00,
2013-02-26 14:50:00,43.2,31.5,30.06,SSE,149,7.0,15.0,63,0.00,,---,0.01,VWS V14.01,2013-02-26 19:50:00,
2013-02-26 14:55:00,43.0,31.7,30.06,ESE,103,9.0,12.0,64,0.00,,---,0.01,VWS V14.01,2013-02-26 19:55:00,
2013-02-26 15:00:00,43.1,31.4,30.06,ESE,103,6.0,15.0,63,0.00,,---,0.01,VWS V14.01,2013-02-26 20:00:00,
2013-02-26 15:05:00,43.1,31.8,30.06,ESE,108,8.0,15.0,64,0.00,,---,0.01,VWS V14.01,2013-02-26 20:05:00,
2013-02-26 15:10:00,43.0,31.7,30.06,ESE,102,11.0,15.0,64,0.00,,---,0.01,VWS V14.01,2013-02-26 20:10:00,
2013-02-26 15:15:00,43.0,32.1,30.05,SE,124,16.0,18.0,65,0.00,,---,0.01,VWS V14.01,2013-02-26 20:15:00,
2013-02-26 15:20:00,43.1,32.2,30.05,ESE,115,12.0,18.0,65,0.00,,---,0.01,VWS V14.01,2013-02-26 20:20:00,
2013-02-26 15:25:00,42.9,31.6,30.05,SE,145,13.0,13.0,64,0.00,,---,0.01,VWS V14.01,2013-02-26 20:25:00,
2013-02-26 15:30:00,42.8,31.9,30.05,ESE,104,7.0,13.0,65,0.00,,---,0.01,VWS V14.01,2013-02-26 20:30:00,
2013-02-26 15:35:00,42.8,31.9,30.05,ESE,111,5.0,14.0,65,0.00,,---,0.01,VWS V14.01,2013-02-26 20:35:00,
2013-02-26 15:40:00,42.6,31.7,30.05,SSE,168,2.0,14.0,65,0.00,,---,0.01,VWS V14.01,2013-02-26 20:40:00,
2013-02-26 15:45:00,42.4,31.5,30.05,ENE,71,5.0,14.0,65,0.00,,---,0.01,VWS V14.01,2013-02-26 20:45:00,
2013-02-26 15:50:00,42.4,31.9,30.05,ESE,112,5.0,15.0,66,0.00,,---,0.01,VWS V14.01,2013-02-26 20:50:00,
2013-02-26 15:55:00,42.3,31.4,30.05,ESE,118,7.0,10.0,65,0.00,,---,0.01,VWS V14.01,2013-02-26 20:55:00,
2013-02-26 16:00:00,42.3,32.1,30.04,East,101,4.0,15.0,67,0.00,,---,0.01,VWS V14.01,2013-02-26 21:00:00,
2013-02-26 16:05:00,42.1,32.3,30.03,ESE,123,4.0,15.0,68,0.00,,---,0.01,VWS V14.01,2013-02-26 21:05:00,
2013-02-26 16:10:00,41.9,32.5,30.02,ESE,113,7.0,15.0,69,0.00,,---,0.01,VWS V14.01,2013-02-26 21:10:00,
2013-02-26 16:15:00,41.8,32.4,30.02,East,93,12.0,15.0,69,0.00,,---,0.01,VWS V14.01,2013-02-26 21:15:00,
2013-02-26 16:20:00,41.7,32.7,30.02,SE,124,5.0,15.0,70,0.00,,---,0.01,VWS V14.01,2013-02-26 21:20:00,
2013-02-26 16:25:00,41.6,31.8,30.02,ESE,116,6.0,13.0,68,0.00,,---,0.01,VWS V14.01,2013-02-26 21:25:00,
2013-02-26 16:30:00,41.8,32.0,30.02,ESE,115,4.0,13.0,68,0.00,,---,0.01,VWS V14.01,2013-02-26 21:30:00,
2013-02-26 16:35:00,41.7,31.9,30.01,SE,136,7.0,13.0,68,0.00,,---,0.01,VWS V14.01,2013-02-26 21:35:00,
2013-02-26 16:40:00,41.8,32.0,30.01,ESE,122,13.0,13.0,68,0.00,,---,0.01,VWS V14.01,2013-02-26 21:40:00,
2013-02-26 16:45:00,41.8,32.0,30.01,East,98,6.0,14.0,68,0.00,,---,0.01,VWS V14.01,2013-02-26 21:45:00,
2013-02-26 16:50:00,41.9,30.6,30.01,East,97,9.0,18.0,64,0.00,,---,0.01,VWS V14.01,2013-02-26 21:50:00,
2013-02-26 16:55:00,41.9,31.4,30.01,East,96,12.0,13.0,66,0.00,,---,0.01,VWS V14.01,2013-02-26 21:55:00,
2013-02-26 17:00:00,41.8,31.3,30.01,East,101,11.0,13.0,66,0.00,,---,0.01,VWS V14.01,2013-02-26 22:00:00,
2013-02-26 17:05:00,41.6,31.5,30.01,East,91,5.0,14.0,67,0.00,,---,0.01,VWS V14.01,2013-02-26 22:05:00,
2013-02-26 17:10:00,41.6,31.5,30.00,East,97,7.0,14.0,67,0.00,,---,0.01,VWS V14.01,2013-02-26 22:10:00,
2013-02-26 17:15:00,41.5,30.6,30.01,ESE,111,11.0,14.0,65,0.00,,---,0.01,VWS V14.01,2013-02-26 22:15:00,
2013-02-26 17:20:00,41.5,31.0,30.01,ESE,117,11.0,18.0,66,0.00,,---,0.01,VWS V14.01,2013-02-26 22:20:00,
2013-02-26 17:25:00,41.5,31.4,30.01,East,101,7.0,11.0,67,0.00,,---,0.01,VWS V14.01,2013-02-26 22:25:00,
2013-02-26 17:30:00,41.4,30.9,30.00,ESE,123,11.0,18.0,66,0.00,,---,0.01,VWS V14.01,2013-02-26 22:30:00,
2013-02-26 17:35:00,41.3,31.5,30.01,East,86,7.0,18.0,68,0.00,,---,0.01,VWS V14.01,2013-02-26 22:35:00,
2013-02-26 17:40:00,41.3,31.5,30.01,SE,124,8.0,18.0,68,0.00,,---,0.01,VWS V14.01,2013-02-26 22:40:00,
2013-02-26 17:45:00,41.3,31.2,30.01,ESE,121,7.0,18.0,67,0.00,,---,0.01,VWS V14.01,2013-02-26 22:45:00,
2013-02-26 17:50:00,41.2,31.5,30.01,ESE,102,12.0,18.0,68,0.00,,---,0.01,VWS V14.01,2013-02-26 22:50:00,
2013-02-26 17:55:00,41.2,31.5,30.01,East,101,7.0,14.0,68,0.00,,---,0.01,VWS V14.01,2013-02-26 22:55:00,
2013-02-26 18:00:00,41.1,31.4,30.01,East,98,9.0,18.0,68,0.00,,---,0.01,VWS V14.01,2013-02-26 23:00:00,
2013-02-26 18:05:00,41.1,31.7,30.00,East,90,7.0,18.0,69,0.00,,---,0.01,VWS V14.01,2013-02-26 23:05:00,
2013-02-26 18:10:00,40.9,32.2,30.00,East,97,7.0,18.0,71,0.00,,---,0.01,VWS V14.01,2013-02-26 23:10:00,
2013-02-26 18:15:00,40.7,32.0,30.00,ENE,72,5.0,18.0,71,0.00,,---,0.01,VWS V14.01,2013-02-26 23:15:00,
2013-02-26 18:20:00,40.7,31.7,29.99,East,86,8.0,18.0,70,0.00,,---,0.01,VWS V14.01,2013-02-26 23:20:00,
2013-02-26 18:25:00,40.6,31.6,29.99,ESE,102,9.0,14.0,70,0.00,,---,0.01,VWS V14.01,2013-02-26 23:25:00,
2013-02-26 18:30:00,40.6,32.3,29.99,East,86,6.0,14.0,72,0.00,,---,0.01,VWS V14.01,2013-02-26 23:30:00,
2013-02-26 18:35:00,40.5,31.9,30.00,East,100,8.0,14.0,71,0.00,,---,0.01,VWS V14.01,2013-02-26 23:35:00,
2013-02-26 18:40:00,40.5,31.9,30.00,East,96,6.0,14.0,71,0.00,,---,0.01,VWS V14.01,2013-02-26 23:40:00,
2013-02-26 18:45:00,40.4,31.8,30.00,East,92,11.0,14.0,71,0.00,,---,0.01,VWS V14.01,2013-02-26 23:45:00,
2013-02-26 18:50:00,40.4,32.4,30.00,East,101,7.0,14.0,73,0.00,,---,0.01,VWS V14.01,2013-02-26 23:50:00,
2013-02-26 18:55:00,40.2,31.9,30.00,ESE,103,8.0,12.0,72,0.00,,---,0.01,VWS V14.01,2013-02-26 23:55:00,
2013-02-26 19:00:00,40.2,31.9,30.00,ESE,108,13.0,14.0,72,0.00,,---,0.01,VWS V14.01,2013-02-27 00:00:00,
2013-02-26 19:05:00,40.1,32.2,30.00,ESE,111,11.0,16.0,73,0.00,,---,0.01,VWS V14.01,2013-02-27 00:05:00,
2013-02-26 19:10:00,40.1,32.2,29.99,East,94,9.0,16.0,73,0.00,,---,0.01,VWS V14.01,2013-02-27 00:10:00,
2013-02-26 19:15:00,40.0,32.4,29.99,ESE,117,11.0,16.0,74,0.00,,---,0.01,VWS V14.01,2013-02-27 00:15:00,
2013-02-26 19:20:00,40.1,32.2,29.99,East,84,11.0,18.0,73,0.00,,---,0.01,VWS V14.01,2013-02-27 00:20:00,
2013-02-26 19:26:00,40.1,31.8,29.99,East,97,8.0,12.0,72,0.00,,---,0.01,VWS V14.01,2013-02-27 00:26:00,
2013-02-26 19:31:00,40.0,32.4,29.99,East,92,9.0,15.0,74,0.00,,---,0.01,VWS V14.01,2013-02-27 00:31:00,
2013-02-26 19:36:00,39.5,32.6,29.99,East,92,11.0,15.0,76,0.00,,---,0.01,VWS V14.01,2013-02-27 00:36:00,
2013-02-26 19:41:00,38.9,32.6,29.99,ESE,109,8.0,15.0,78,0.00,,---,0.01,VWS V14.01,2013-02-27 00:41:00,
2013-02-26 19:46:00,38.4,32.8,29.99,SSE,168,7.0,15.0,80,0.00,,---,0.01,VWS V14.01,2013-02-27 00:46:00,
2013-02-26 19:51:00,37.9,32.9,29.98,ESE,108,9.0,15.0,82,0.01,,---,0.02,VWS V14.01,2013-02-27 00:51:00,
2013-02-26 19:56:00,37.4,32.7,29.98,ENE,68,7.0,11.0,83,0.01,,---,0.02,VWS V14.01,2013-02-27 00:56:00,
2013-02-26 20:01:00,37.1,33.0,29.97,East,89,8.0,15.0,85,0.02,,---,0.03,VWS V14.01,2013-02-27 01:01:00,
2013-02-26 20:06:00,36.9,33.1,29.96,ESE,105,8.0,15.0,86,0.02,,---,0.03,VWS V14.01,2013-02-27 01:06:00,
2013-02-26 20:11:00,36.4,32.9,29.96,East,100,8.0,15.0,87,0.02,,---,0.03,VWS V14.01,2013-02-27 01:11:00,
2013-02-26 20:16:00,35.9,32.7,29.95,East,98,8.0,15.0,88,0.02,,---,0.03,VWS V14.01,2013-02-27 01:16:00,
2013-02-26 20:21:00,35.4,32.5,29.95,East,95,8.0,15.0,89,0.03,,---,0.04,VWS V14.01,2013-02-27 01:21:00,
2013-02-26 20:26:00,35.3,32.7,29.95,East,91,6.0,8.0,90,0.03,,---,0.04,VWS V14.01,2013-02-27 01:26:00,
2013-02-26 20:31:00,35.3,32.7,29.94,SE,144,6.0,11.0,90,0.03,,---,0.04,VWS V14.01,2013-02-27 01:31:00,
2013-02-26 20:36:00,35.2,32.6,29.93,ESE,106,7.0,12.0,90,0.04,,---,0.05,VWS V14.01,2013-02-27 01:36:00,
2013-02-26 20:41:00,35.3,32.7,29.92,East,101,5.0,12.0,90,0.04,,---,0.05,VWS V14.01,2013-02-27 01:41:00,
2013-02-26 20:46:00,35.3,32.7,29.92,ESE,103,4.0,12.0,90,0.05,,---,0.06,VWS V14.01,2013-02-27 01:46:00,
2013-02-26 20:51:00,35.4,32.8,29.92,SE,144,6.0,12.0,90,0.05,,---,0.06,VWS V14.01,2013-02-27 01:51:00,
2013-02-26 20:56:00,35.4,32.8,29.92,SSE,157,4.0,7.0,90,0.05,,---,0.07,VWS V14.01,2013-02-27 01:56:00,
2013-02-26 21:01:00,35.5,32.9,29.92,East,89,5.0,12.0,90,0.05,,---,0.07,VWS V14.01,2013-02-27 02:01:00,
2013-02-26 21:06:00,35.6,33.0,29.91,ESE,121,0.0,12.0,90,0.05,,---,0.07,VWS V14.01,2013-02-27 02:06:00,
2013-02-26 21:11:00,35.6,33.0,29.91,ESE,116,5.0,12.0,90,0.05,,---,0.07,VWS V14.01,2013-02-27 02:11:00,
2013-02-26 21:16:00,35.6,33.0,29.91,ESE,105,7.0,12.0,90,0.05,,---,0.07,VWS V14.01,2013-02-27 02:16:00,
2013-02-26 21:21:00,35.7,33.1,29.90,ESE,120,2.0,12.0,90,0.06,,---,0.08,VWS V14.01,2013-02-27 02:21:00,
2013-02-26 21:26:00,35.7,33.1,29.90,ENE,74,3.0,7.0,90,0.04,,---,0.08,VWS V14.01,2013-02-27 02:26:00,
2013-02-26 21:31:00,35.7,33.1,29.91,ESE,113,2.0,7.0,90,0.05,,---,0.09,VWS V14.01,2013-02-27 02:31:00,
2013-02-26 21:36:00,35.8,33.2,29.90,South,190,2.0,8.0,90,0.06,,---,0.10,VWS V14.01,2013-02-27 02:36:00,
2013-02-26 21:41:00,35.8,33.2,29.90,ESE,111,8.0,10.0,90,0.07,,---,0.11,VWS V14.01,2013-02-27 02:41:00,
2013-02-26 21:46:00,35.9,33.3,29.90,SE,135,9.0,11.0,90,0.07,,---,0.11,VWS V14.01,2013-02-27 02:46:00,
2013-02-26 21:51:00,35.8,33.2,29.89,ESE,106,5.0,11.0,90,0.07,,---,0.11,VWS V14.01,2013-02-27 02:51:00,
2013-02-26 21:56:00,35.8,33.2,29.89,East,96,5.0,7.0,90,0.05,,---,0.11,VWS V14.01,2013-02-27 02:56:00,
2013-02-26 22:01:00,35.7,33.1,29.89,ESE,120,2.0,12.0,90,0.06,,---,0.12,VWS V14.01,2013-02-27 03:01:00,
2013-02-26 22:06:00,35.6,33.0,29.89,SSE,148,0.0,12.0,90,0.06,,---,0.12,VWS V14.01,2013-02-27 03:06:00,
2013-02-26 22:11:00,35.3,32.7,29.89,SSE,150,1.0,12.0,90,0.06,,---,0.12,VWS V14.01,2013-02-27 03:11:00,
2013-02-26 22:16:00,35.1,32.5,29.89,SSE,151,0.0,12.0,90,0.06,,---,0.12,VWS V14.01,2013-02-27 03:16:00,
2013-02-26 22:21:00,35.0,32.6,29.89,SSW,196,2.0,12.0,91,0.06,,---,0.12,VWS V14.01,2013-02-27 03:21:00,
2013-02-26 22:26:00,34.8,32.5,29.90,South,176,1.0,5.0,91,0.05,,---,0.13,VWS V14.01,2013-02-27 03:26:00,
2013-02-26 22:31:00,34.7,32.3,29.90,South,176,0.0,5.0,91,0.05,,---,0.13,VWS V14.01,2013-02-27 03:31:00,
2013-02-26 22:36:00,34.6,32.2,29.90,South,176,1.0,5.0,91,0.05,,---,0.13,VWS V14.01,2013-02-27 03:36:00,
2013-02-26 22:41:00,34.6,32.5,29.89,South,176,0.0,5.0,92,0.05,,---,0.13,VWS V14.01,2013-02-27 03:41:00,
2013-02-26 22:46:00,34.5,32.4,29.89,South,176,0.0,5.0,92,0.06,,---,0.14,VWS V14.01,2013-02-27 03:46:00,
2013-02-26 22:51:00,34.4,32.3,29.90,South,176,0.0,5.0,92,0.06,,---,0.14,VWS V14.01,2013-02-27 03:51:00,
2013-02-26 22:57:00,34.2,32.1,29.91,South,176,1.0,4.0,92,0.04,,---,0.15,VWS V14.01,2013-02-27 03:57:00,
2013-02-26 23:02:00,34.2,32.1,29.91,South,176,0.0,4.0,92,0.04,,---,0.15,VWS V14.01,2013-02-27 04:02:00,
2013-02-26 23:07:00,34.1,32.0,29.91,South,176,0.0,4.0,92,0.04,,---,0.15,VWS V14.01,2013-02-27 04:07:00,
2013-02-26 23:12:00,33.9,31.8,29.90,South,176,0.0,4.0,92,0.04,,---,0.15,VWS V14.01,2013-02-27 04:12:00,
2013-02-26 23:17:00,33.7,31.6,29.91,South,176,0.0,4.0,92,0.04,,---,0.15,VWS V14.01,2013-02-27 04:17:00,
2013-02-26 23:22:00,33.5,31.4,29.91,South,176,0.0,4.0,92,0.04,,---,0.15,VWS V14.01,2013-02-27 04:22:00,
2013-02-26 23:27:00,33.4,31.3,29.91,South,176,0.0,0.0,92,0.02,,---,0.15,VWS V14.01,2013-02-27 04:27:00,
2013-02-26 23:32:00,33.2,31.4,29.91,South,176,0.0,0.0,93,0.03,,---,0.16,VWS V14.01,2013-02-27 04:32:00,
2013-02-26 23:37:00,33.1,31.3,29.90,South,176,0.0,0.0,93,0.03,,---,0.16,VWS V14.01,2013-02-27 04:37:00,
2013-02-26 23:42:00,33.0,31.2,29.90,South,176,0.0,0.0,93,0.03,,---,0.16,VWS V14.01,2013-02-27 04:42:00,
2013-02-26 23:47:00,32.9,31.1,29.90,South,176,0.0,0.0,93,0.03,,---,0.16,VWS V14.01,2013-02-27 04:47:00,
2013-02-26 23:52:00,32.9,31.1,29.90,South,176,0.0,0.0,93,0.03,,---,0.16,VWS V14.01,2013-02-27 04:52:00,
2013-02-26 23:57:00,32.8,31.0,29.89,South,176,0.0,0.0,93,0.02,,---,0.00,VWS V14.01,2013-02-27 04:57:00,